BCC981 EDDH-EDXW

Flight info

Callsign BCC981
Flight time 0h 29m
Altitude 10000
Route SOKWO1G SOKWO T814 EXNEL DCT OLDIP
Aircraft A320/M-SDE3FGHIRWY/LB1

Departure

Time 2026-04-25 14:26
Airport Hamburg Helmut Schmidt Airport (EDDH)

Arrival

Time 2026-04-25 14:56
Airport Westerland Sylt Airport (EDXW)
Time Latitude Longitude Altitude Speed Heading
2026-04-25 13:48 53.63112 10.00370 51 ft 0 kts 86°
2026-04-25 14:17 53.63112 10.00356 49 ft 4 kts 86°
2026-04-25 14:17 53.63110 10.00311 46 ft 4 kts 86°
2026-04-25 14:18 53.63110 10.00277 46 ft 4 kts 118°
2026-04-25 14:18 53.63125 10.00257 46 ft 2 kts 176°
2026-04-25 14:18 53.63108 10.00259 46 ft 1 kts 176°
2026-04-25 14:18 53.63107 10.00259 46 ft 0 kts 176°
2026-04-25 14:23 53.63094 10.00261 48 ft 4 kts 177°
2026-04-25 14:23 53.63056 10.00246 51 ft 7 kts 205°
2026-04-25 14:23 53.63001 10.00193 51 ft 11 kts 212°
2026-04-25 14:24 53.62937 10.00119 51 ft 8 kts 214°
2026-04-25 14:24 53.62879 10.00055 48 ft 12 kts 223°
2026-04-25 14:24 53.62831 9.99920 49 ft 15 kts 243°
2026-04-25 14:24 53.62832 9.99773 47 ft 14 kts 323°
2026-04-25 14:25 53.62839 9.99767 49 ft 0 kts 329°
2026-04-25 14:25 53.62840 9.99765 49 ft 0 kts 331°
2026-04-25 14:25 53.62841 9.99765 49 ft 1 kts 331°
2026-04-25 14:26 53.63041 9.99587 46 ft 66 kts 332°
2026-04-25 14:26 53.63643 9.99072 50 ft 125 kts 332°
2026-04-25 14:26 53.64525 9.98341 399 ft 144 kts 330°
2026-04-25 14:26 53.65439 9.97591 1214 ft 146 kts 327°
2026-04-25 14:27 53.66337 9.96816 2064 ft 144 kts 326°
2026-04-25 14:27 53.67221 9.96045 2850 ft 142 kts 326°
2026-04-25 14:27 53.68109 9.95270 3488 ft 149 kts 326°
2026-04-25 14:27 53.69176 9.94657 3850 ft 181 kts 347°
2026-04-25 14:28 53.70056 9.94619 4146 ft 197 kts 351°
2026-04-25 14:28 53.71453 9.94616 4843 ft 202 kts 350°
2026-04-25 14:28 53.72870 9.94655 5668 ft 207 kts 355°
2026-04-25 14:28 53.74308 9.95443 6449 ft 236 kts 19°
2026-04-25 14:29 53.75788 9.96981 6908 ft 263 kts 22°
2026-04-25 14:29 53.77365 9.98707 7616 ft 275 kts 23°
2026-04-25 14:29 53.78977 10.00513 8522 ft 280 kts 23°
2026-04-25 14:29 53.80612 10.02349 9456 ft 284 kts 23°
2026-04-25 14:30 53.82277 10.04210 9913 ft 288 kts 22°
2026-04-25 14:30 53.85624 10.07930 10071 ft 288 kts 22°
2026-04-25 14:30 53.87395 10.09763 10239 ft 306 kts 16°
2026-04-25 14:31 53.89414 10.10910 10489 ft 316 kts
2026-04-25 14:31 53.91637 10.11044 10685 ft 326 kts 346°
2026-04-25 14:31 53.93904 10.10215 10818 ft 344 kts 340°
2026-04-25 14:31 53.96273 10.09206 11206 ft 356 kts 340°
2026-04-25 14:32 53.98690 10.08174 11811 ft 360 kts 340°
2026-04-25 14:32 54.01130 10.07137 12016 ft 362 kts 340°
2026-04-25 14:32 54.03572 10.06102 12052 ft 362 kts 340°
2026-04-25 14:32 54.06017 10.05068 12048 ft 362 kts 340°
2026-04-25 14:33 54.08446 10.03989 12043 ft 359 kts 337°
2026-04-25 14:33 54.10713 10.02299 12043 ft 354 kts 327°
2026-04-25 14:33 54.12716 9.99914 12040 ft 350 kts 317°
2026-04-25 14:33 54.14411 9.96965 12042 ft 348 kts 310°
2026-04-25 14:34 54.16025 9.93888 12037 ft 348 kts 310°
2026-04-25 14:34 54.17642 9.90812 12038 ft 348 kts 310°
2026-04-25 14:34 54.19259 9.87743 12050 ft 348 kts 310°
2026-04-25 14:34 54.20873 9.84669 12052 ft 348 kts 310°
2026-04-25 14:35 54.22488 9.81590 12054 ft 348 kts 310°
2026-04-25 14:35 54.24128 9.78547 12057 ft 348 kts 314°
2026-04-25 14:35 54.26018 9.75942 12060 ft 350 kts 321°
2026-04-25 14:35 54.27991 9.73495 12062 ft 350 kts 321°
2026-04-25 14:36 54.29962 9.71041 12065 ft 350 kts 321°
2026-04-25 14:36 54.31909 9.68610 12067 ft 350 kts 321°
2026-04-25 14:36 54.33874 9.66154 12069 ft 350 kts 321°
2026-04-25 14:36 54.35810 9.63627 12069 ft 348 kts 316°
2026-04-25 14:37 54.37444 9.60597 12070 ft 346 kts 306°
2026-04-25 14:37 54.38672 9.57101 12058 ft 333 kts 296°
2026-04-25 14:37 54.39604 9.53629 12057 ft 308 kts 296°
2026-04-25 14:37 54.40473 9.50409 12053 ft 287 kts 296°
2026-04-25 14:38 54.41288 9.47406 12055 ft 268 kts 296°
2026-04-25 14:38 54.42051 9.44590 12055 ft 252 kts 296°
2026-04-25 14:38 54.42771 9.41921 12056 ft 243 kts 296°
2026-04-25 14:38 54.43481 9.39292 12055 ft 242 kts 296°
2026-04-25 14:39 54.44187 9.36661 12056 ft 242 kts 296°
2026-04-25 14:39 54.44890 9.34044 11880 ft 240 kts 296°
2026-04-25 14:39 54.45587 9.31446 11502 ft 239 kts 296°
2026-04-25 14:39 54.46280 9.28864 11149 ft 237 kts 296°
2026-04-25 14:40 54.46969 9.26296 10807 ft 236 kts 296°
2026-04-25 14:40 54.47644 9.23776 10470 ft 235 kts 296°
2026-04-25 14:40 54.48332 9.21199 10148 ft 233 kts 296°
2026-04-25 14:40 54.48996 9.18702 9812 ft 232 kts 296°
2026-04-25 14:41 54.49666 9.16185 9430 ft 231 kts 296°
2026-04-25 14:41 54.50336 9.13672 9056 ft 230 kts 296°
2026-04-25 14:41 54.51002 9.11170 8691 ft 230 kts 296°
2026-04-25 14:41 54.51664 9.08673 8334 ft 229 kts 296°
2026-04-25 14:42 54.52324 9.06179 7978 ft 228 kts 296°
2026-04-25 14:42 54.52760 9.04537 7741 ft 228 kts 296°
2026-04-25 14:42 54.53639 9.01224 7275 ft 227 kts 296°
2026-04-25 14:42 54.54294 8.98751 6923 ft 227 kts 296°
2026-04-25 14:43 54.54946 8.96284 6579 ft 226 kts 296°
2026-04-25 14:43 54.55596 8.93821 6232 ft 226 kts 296°
2026-04-25 14:43 54.56246 8.91359 5861 ft 226 kts 296°
2026-04-25 14:43 54.56896 8.88898 5502 ft 226 kts 296°
2026-04-25 14:44 54.57546 8.86430 5132 ft 226 kts 296°
2026-04-25 14:44 54.58194 8.83959 4782 ft 226 kts 296°
2026-04-25 14:44 54.58840 8.81486 4411 ft 226 kts 296°
2026-04-25 14:44 54.59477 8.79048 4073 ft 225 kts 296°
2026-04-25 14:45 54.60119 8.76594 3740 ft 224 kts 296°
2026-04-25 14:45 54.60759 8.74152 3417 ft 223 kts 296°
2026-04-25 14:45 54.61422 8.71756 3138 ft 218 kts 302°
2026-04-25 14:45 54.62369 8.69806 3025 ft 207 kts 317°
2026-04-25 14:46 54.63455 8.68315 3016 ft 192 kts 322°
2026-04-25 14:46 54.64501 8.67018 3018 ft 177 kts 322°
2026-04-25 14:46 54.65463 8.65842 3015 ft 162 kts 322°
2026-04-25 14:46 54.66340 8.64771 3034 ft 145 kts 322°
2026-04-25 14:47 54.67119 8.63820 3031 ft 130 kts 321°
2026-04-25 14:47 54.67589 8.63247 3008 ft 120 kts 321°
2026-04-25 14:47 54.68478 8.62160 3015 ft 115 kts 321°
2026-04-25 14:47 54.69116 8.61378 3017 ft 114 kts 321°
2026-04-25 14:48 54.69760 8.60591 3015 ft 113 kts 321°
2026-04-25 14:48 54.70401 8.59806 3018 ft 113 kts 321°
2026-04-25 14:48 54.71043 8.59020 3016 ft 113 kts 321°
2026-04-25 14:48 54.71685 8.58235 3014 ft 113 kts 321°
2026-04-25 14:49 54.72325 8.57451 3017 ft 113 kts 321°
2026-04-25 14:49 54.72964 8.56668 3014 ft 113 kts 321°
2026-04-25 14:49 54.73606 8.55881 3014 ft 113 kts 321°
2026-04-25 14:49 54.74248 8.55095 3016 ft 113 kts 321°
2026-04-25 14:50 54.74892 8.54305 3014 ft 113 kts 321°
2026-04-25 14:50 54.75533 8.53519 3014 ft 113 kts 321°
2026-04-25 14:50 54.76171 8.52736 3017 ft 113 kts 321°
2026-04-25 14:50 54.76817 8.51943 3013 ft 114 kts 321°
2026-04-25 14:51 54.77462 8.51151 3014 ft 113 kts 321°
2026-04-25 14:51 54.78108 8.50357 2980 ft 114 kts 322°
2026-04-25 14:51 54.78754 8.49562 2891 ft 113 kts 322°
2026-04-25 14:51 54.79395 8.48775 2766 ft 112 kts 322°
2026-04-25 14:52 54.80024 8.48001 2625 ft 112 kts 322°
2026-04-25 14:52 54.80659 8.47219 2477 ft 112 kts 322°
2026-04-25 14:52 54.81294 8.46437 2320 ft 112 kts 322°
2026-04-25 14:52 54.81715 8.45919 2219 ft 112 kts 321°
2026-04-25 14:53 54.82567 8.44869 2012 ft 113 kts 321°
2026-04-25 14:53 54.83210 8.44077 1858 ft 113 kts 321°
2026-04-25 14:53 54.83846 8.43293 1704 ft 112 kts 321°
2026-04-25 14:53 54.84481 8.42509 1535 ft 111 kts 321°
2026-04-25 14:54 54.85105 8.41740 1387 ft 112 kts 321°
2026-04-25 14:54 54.85745 8.40949 1223 ft 112 kts 321°
2026-04-25 14:54 54.86370 8.40178 1077 ft 112 kts 321°
2026-04-25 14:54 54.87009 8.39388 914 ft 114 kts 321°
2026-04-25 14:55 54.87661 8.38581 713 ft 117 kts 320°
2026-04-25 14:55 54.88326 8.37762 517 ft 118 kts 320°
2026-04-25 14:55 54.88997 8.36929 374 ft 119 kts 320°
2026-04-25 14:55 54.89681 8.36096 233 ft 121 kts 320°
2026-04-25 14:56 54.90358 8.35253 59 ft 119 kts 320°
2026-04-25 14:56 54.90956 8.34501 42 ft 83 kts 324°
2026-04-25 14:56 54.91235 8.34156 43 ft 35 kts 325°
2026-04-25 14:56 54.91427 8.33912 42 ft 33 kts 324°
2026-04-25 14:57 54.91591 8.33710 43 ft 24 kts 324°
2026-04-25 14:57 54.91734 8.33547 43 ft 25 kts 324°
2026-04-25 14:57 54.91867 8.33367 42 ft 17 kts 317°
2026-04-25 14:57 54.91836 8.33209 41 ft 18 kts 204°
2026-04-25 14:58 54.91699 8.33177 41 ft 22 kts 180°